N7JMV Weather Reports


time (UTC)temp
F
wind
direction
speed
knots
gust
knots
rain 1hr
in
rain 24hr
in
rain mn
in
humidity
%
barometer
mb
20260507063013 51 142 0.0 0.0 0.00 0.00 0.00 88 1021.0
20260507062506 51 142 0.0 0.0 0.00 0.00 0.00 88 1021.1
20260507062009 51 142 0.0 0.0 0.00 0.00 0.00 88 1021.1
20260507061520 51 142 0.0 0.0 0.00 0.00 0.00 88 1021.1
20260507061006 51 142 0.0 0.0 0.00 0.00 0.00 88 1021.0
20260507060506 52 142 0.0 0.0 0.00 0.00 0.00 88 1021.0
20260507060023 52 142 0.0 0.0 0.00 0.00 0.00 87 1021.0
20260507055503 52 142 0.0 0.0 0.00 0.00 0.00 87 1021.0
20260507055006 52 142 0.0 0.0 0.00 0.00 0.00 87 1021.0
20260507054507 52 142 0.0 0.0 0.00 0.00 0.00 87 1021.1
20260507054003 52 142 0.0 0.0 0.00 0.00 0.00 87 1021.1
20260507053503 52 142 0.0 0.0 0.00 0.00 0.00 87 1021.1
20260507053012 52 142 0.0 0.0 0.00 0.00 0.00 87 1021.1
20260507052504 52 142 0.0 0.0 0.00 0.00 0.00 87 1021.2
20260507052004 53 142 0.0 0.0 0.00 0.00 0.00 87 1021.3
20260507051516 53 142 0.0 0.0 0.00 0.00 0.00 87 1021.2
20260507051004 53 142 0.0 0.0 0.00 0.00 0.00 87 1021.3
20260507050507 53 142 0.0 0.0 0.00 0.00 0.00 87 1021.2
20260507050025 53 142 0.0 0.0 0.00 0.00 0.00 86 1021.3
20260507045507 53 142 0.0 0.0 0.00 0.00 0.00 86 1021.3
20260507045007 53 142 0.0 0.0 0.00 0.00 0.00 86 1021.2
20260507044523 53 142 0.0 0.0 0.00 0.00 0.00 86 1021.2
20260507044010 53 142 0.0 0.0 0.00 0.00 0.00 86 1021.2
20260507043503 53 142 0.0 0.0 0.00 0.00 0.00 86 1021.1
20260507043010 53 142 0.0 0.0 0.00 0.00 0.00 86 1021.1
20260507042505 53 142 0.0 0.0 0.00 0.00 0.00 86 1021.1
20260507042002 53 142 0.0 0.0 0.00 0.00 0.00 85 1021.0
20260507041511 53 142 0.0 0.0 0.00 0.00 0.00 85 1020.9
20260507041006 53 142 0.0 0.0 0.00 0.00 0.00 85 1021.0
20260507040506 53 142 0.0 0.0 0.00 0.00 0.00 84 1021.0
20260507040016 53 142 0.0 0.0 0.00 0.00 0.00 84 1020.9
20260507035508 54 142 0.0 0.0 0.00 0.00 0.00 84 1020.9
20260507035008 54 142 0.0 0.0 0.00 0.00 0.00 83 1020.9
20260507034528 54 142 0.0 0.0 0.00 0.00 0.00 83 1020.9
20260507034006 54 142 0.0 0.0 0.00 0.00 0.00 83 1020.8
20260507033507 54 142 0.0 0.0 0.00 0.00 0.00 82 1020.8
20260507033024 55 142 0.0 0.0 0.00 0.00 0.00 82 1020.8
20260507032512 55 142 0.0 0.0 0.00 0.00 0.00 81 1020.8
20260507032011 55 142 0.0 0.0 0.00 0.00 0.00 81 1020.8
20260507031509 55 142 0.0 0.0 0.00 0.00 0.00 80 1020.7
20260507031003 55 142 0.0 0.0 0.00 0.00 0.00 80 1020.7
20260507030503 56 142 0.0 0.0 0.00 0.00 0.00 80 1020.7
20260507030012 56 142 0.0 0.0 0.00 0.00 0.00 79 1020.7
20260507025508 56 142 0.0 0.0 0.00 0.00 0.00 79 1020.7
20260507025008 56 142 0.0 0.0 0.00 0.00 0.00 80 1020.7
20260507024519 55 142 0.0 0.0 0.00 0.00 0.00 79 1020.7
20260507024008 56 142 0.0 0.0 0.00 0.00 0.00 79 1020.6
20260507023506 56 142 0.0 0.0 0.00 0.00 0.00 78 1020.6
20260507023021 56 142 0.0 0.0 0.00 0.00 0.00 78 1020.6
20260507022510 56 142 0.0 0.0 0.00 0.00 0.00 78 1020.6
20260507022010 57 142 0.0 0.0 0.00 0.00 0.00 77 1020.6
20260507021526 57 142 0.0 0.0 0.00 0.00 0.00 77 1020.6
20260507021011 57 142 0.0 0.0 0.00 0.00 0.00 77 1020.6
20260507020513 57 142 0.0 0.0 0.00 0.00 0.00 75 1020.5
20260507020044 57 142 0.0 0.0 0.00 0.00 0.00 75 1020.6
20260507015504 57 142 0.0 0.0 0.00 0.00 0.00 75 1020.5
20260507015008 57 142 0.0 0.0 0.00 0.00 0.00 75 1020.5
20260507014512 57 142 0.0 0.0 0.00 0.00 0.00 75 1020.5
20260507014004 57 142 0.0 0.0 0.00 0.00 0.00 75 1020.5
20260507013505 57 142 0.0 0.0 0.00 0.00 0.00 75 1020.5
20260507013004 57 160 0.0 0.0 0.00 0.00 0.00 75 1020.5
20260507012502 57 168 0.0 0.0 0.00 0.00 0.00 74 1020.6
20260507012003 57 91 0.0 0.0 0.00 0.00 0.00 74 1020.6
20260507011506 57 119 0.0 0.0 0.00 0.00 0.00 74 1020.6
20260507011003 57 89 0.0 0.0 0.00 0.00 0.00 73 1020.6
20260507010503 57 89 0.0 0.9 0.00 0.00 0.00 73 1020.7
20260507010006 57 99 0.0 0.9 0.00 0.00 0.00 73 1020.7
20260507005504 57 84 0.0 0.9 0.00 0.00 0.00 73 1020.7
20260507005004 58 101 0.0 0.0 0.00 0.00 0.00 72 1020.7
20260507004511 58 15 0.0 0.0 0.00 0.00 0.00 72 1020.6
20260507004004 58 15 0.0 0.9 0.00 0.00 0.00 73 1020.6
20260507003504 58 34 0.0 1.7 0.00 0.00 0.00 72 1020.6
20260507003014 58 119 0.0 1.7 0.00 0.00 0.00 72 1020.7
20260507002506 58 66 0.0 1.7 0.00 0.00 0.00 73 1020.7
20260507002010 58 5 0.0 0.9 0.00 0.00 0.00 72 1020.6
20260507001512 58 39 0.0 0.9 0.00 0.00 0.00 72 1020.6
20260507001002 58 120 0.0 0.9 0.00 0.00 0.00 71 1020.6
20260507000505 58 116 0.0 0.9 0.00 0.00 0.00 72 1020.6
20260507000012 58 108 0.0 0.0 0.00 0.00 0.00 72 1020.6
20260506235504 58 143 0.0 1.7 0.00 0.00 0.00 71 1020.6
20260506235003 58 18 0.0 1.7 0.00 0.00 0.00 71 1020.6
20260506234506 58 131 0.0 0.9 0.00 0.00 0.00 71 1020.6
20260506234003 58 99 0.0 0.9 0.00 0.00 0.00 71 1020.6
20260506233504 58 150 0.0 0.0 0.00 0.00 0.00 71 1020.6
20260506233012 58 159 0.0 0.0 0.00 0.00 0.00 71 1020.6
20260506232503 58 73 0.0 1.7 0.00 0.00 0.00 71 1020.6
20260506232006 58 73 0.0 1.7 0.00 0.00 0.00 71 1020.6
20260506231517 58 86 0.0 4.3 0.00 0.00 0.00 69 1020.7
20260506231008 58 86 0.0 4.3 0.00 0.00 0.00 70 1020.6
20260506230511 58 34 0.0 1.7 0.00 0.00 0.00 71 1020.6
20260506230020 58 79 0.0 1.7 0.00 0.00 0.00 72 1020.6
20260506225503 58 15 0.0 1.7 0.00 0.00 0.00 73 1020.7
20260506225003 58 335 0.9 1.7 0.00 0.00 0.00 73 1020.7
20260506224504 58 45 0.0 1.7 0.00 0.00 0.00 71 1020.7
20260506224003 58 24 0.9 1.7 0.00 0.00 0.00 73 1020.8
20260506223503 58 34 0.9 1.7 0.00 0.00 0.00 72 1020.8
20260506223006 58 334 0.0 0.9 0.00 0.00 0.00 73 1020.8
20260506222510 58 23 0.0 0.9 0.00 0.00 0.00 73 1020.8
20260506222004 58 98 0.0 0.0 0.00 0.00 0.00 73 1020.9
20260506221512 58 47 0.0 3.5 0.00 0.00 0.00 73 1020.9
20260506221003 58 131 0.0 3.5 0.00 0.00 0.00 73 1020.9
20260506220504 58 201 0.9 3.5 0.00 0.00 0.00 73 1021.0
20260506220016 58 107 0.0 1.7 0.00 0.00 0.00 72 1021.0
20260506215506 58 191 0.0 0.9 0.00 0.00 0.00 75 1021.1
20260506215006 58 70 0.0 0.9 0.00 0.00 0.00 74 1020.9
20260506214521 58 103 0.0 0.9 0.00 0.00 0.00 74 1021.0
20260506214007 58 86 0.0 0.0 0.00 0.00 0.00 75 1021.0
20260506213505 57 141 0.0 0.9 0.00 0.00 0.00 76 1021.0
20260506213004 57 141 0.0 0.9 0.00 0.00 0.00 75 1020.9
20260506212504 57 252 0.0 0.9 0.00 0.00 0.00 76 1021.0
20260506212005 57 163 0.0 0.0 0.00 0.00 0.00 76 1021.1
20260506211508 57 109 0.0 0.0 0.00 0.00 0.00 77 1021.1
20260506211004 57 109 0.0 0.0 0.00 0.00 0.00 77 1021.0
20260506210508 56 109 0.0 0.0 0.00 0.00 0.00 78 1021.0
20260506210036 57 109 0.0 0.0 0.00 0.00 0.00 77 1021.0
20260506205503 57 102 0.0 0.0 0.00 0.00 0.00 76 1021.0
20260506205009 57 32 0.0 1.7 0.00 0.00 0.00 77 1020.9
20260506204518 57 32 0.0 1.7 0.00 0.00 0.00 76 1021.0
20260506204007 57 153 0.0 0.0 0.00 0.00 0.00 76 1021.0
20260506203509 57 174 0.0 0.9 0.00 0.00 0.00 76 1021.0
20260506203022 57 84 0.0 2.6 0.00 0.00 0.00 77 1020.9
20260506202506 57 117 0.0 2.6 0.00 0.00 0.00 76 1021.0
20260506202012 57 117 0.0 1.7 0.00 0.00 0.00 77 1020.9
20260506201510 57 136 0.0 1.7 0.00 0.00 0.00 77 1021.0
20260506201004 57 146 0.0 2.6 0.00 0.00 0.00 76 1021.0
20260506200504 57 121 0.0 2.6 0.00 0.00 0.00 78 1020.9
20260506200011 57 136 0.9 1.7 0.00 0.00 0.00 77 1020.9
20260506195504 57 114 0.9 1.7 0.00 0.00 0.00 76 1020.9
20260506195005 58 69 0.0 1.7 0.00 0.00 0.00 77 1020.8
20260506194517 57 131 0.0 3.5 0.00 0.00 0.00 77 1020.7
20260506194008 57 63 0.9 3.5 0.00 0.00 0.00 77 1020.6
20260506193507 57 106 0.0 1.7 0.00 0.00 0.00 79 1020.7
20260506193033 57 44 0.0 1.7 0.00 0.00 0.00 78 1020.6
20260506192506 57 49 0.0 1.7 0.00 0.00 0.00 79 1020.8
20260506192010 57 30 0.0 1.7 0.00 0.00 0.00 80 1020.7
20260506191527 57 96 0.9 1.7 0.00 0.00 0.00 80 1020.6
20260506191007 56 10 0.0 0.9 0.00 0.00 0.00 83 1020.6
20260506190509 55 10 0.0 2.6 0.00 0.00 0.00 84 1020.6
20260506190031 55 54 0.0 2.6 0.00 0.00 0.00 85 1020.6
20260506185505 55 51 0.0 1.7 0.00 0.00 0.00 86 1020.5
20260506185003 54 138 0.9 1.7 0.00 0.00 0.00 86 1020.6
20260506184513 54 68 0.0 1.7 0.00 0.00 0.00 86 1020.6
20260506184003 54 98 0.0 1.7 0.00 0.00 0.00 86 1020.6
20260506183503 54 144 0.0 0.9 0.00 0.00 0.00 86 1020.5
20260506183015 54 144 0.0 0.9 0.00 0.00 0.00 86 1020.5
20260506182511 55 144 0.0 1.7 0.00 0.00 0.00 86 1020.5
20260506182009 55 66 0.0 1.7 0.00 0.00 0.00 86 1020.5
20260506181534 55 139 0.0 2.6 0.00 0.00 0.00 85 1020.5
20260506181010 55 139 0.0 2.6 0.00 0.00 0.00 84 1020.6
20260506180507 55 103 0.0 1.7 0.00 0.00 0.00 83 1020.6
20260506180027 55 139 0.0 2.6 0.00 0.00 0.00 82 1020.5
20260506175508 56 83 1.7 2.6 0.00 0.00 0.00 82 1020.4
20260506175009 56 129 0.0 0.0 0.00 0.00 0.00 82 1020.2
20260506174527 55 138 0.0 0.0 0.00 0.00 0.00 83 1020.0
20260506174013 55 91 0.0 0.9 0.00 0.00 0.00 83 1020.1
20260506173512 55 98 0.0 0.9 0.00 0.00 0.00 84 1020.1
20260506173014 55 129 0.0 0.0 0.00 0.00 0.00 85 1020.3
20260506172503 54 121 0.0 0.9 0.00 0.00 0.00 86 1020.4
20260506172006 54 121 0.0 0.9 0.00 0.00 0.00 86 1020.5
20260506171518 54 85 0.0 0.9 0.00 0.00 0.00 87 1020.5
20260506171011 54 113 0.0 0.9 0.00 0.00 0.00 87 1020.4
20260506170506 54 113 0.0 1.7 0.00 0.00 0.00 87 1020.4
20260506170028 54 114 0.0 1.7 0.00 0.00 0.00 87 1020.5
20260506165507 54 79 0.0 1.7 0.00 0.00 0.00 86 1020.4
20260506165009 54 238 0.0 1.7 0.00 0.00 0.00 86 1020.3
20260506164542 54 144 0.0 1.7 0.00 0.00 0.00 87 1020.3
20260506164006 54 87 0.0 1.7 0.00 0.00 0.00 86 1020.2
20260506163510 54 89 0.0 0.9 0.00 0.00 0.00 85 1020.2
20260506163013 54 141 0.0 0.9 0.00 0.00 0.00 86 1020.3
20260506162510 54 139 0.0 1.7 0.00 0.00 0.00 86 1020.1
20260506162005 54 77 0.9 1.7 0.00 0.00 0.00 86 1020.0
20260506161515 54 94 0.0 0.0 0.00 0.00 0.00 86 1019.9
20260506161004 54 94 0.0 0.0 0.00 0.00 0.00 85 1020.0
20260506160505 54 94 0.0 0.0 0.00 0.00 0.00 86 1019.9
20260506160020 54 129 0.0 0.0 0.00 0.00 0.00 87 1019.9
20260506155502 54 21 0.0 0.0 0.00 0.00 0.00 87 1019.6
20260506155002 54 20 0.0 0.0 0.00 0.00 0.00 87 1019.6
20260506154503 54 25 0.0 0.0 0.00 0.00 0.00 87 1019.6
20260506154003 53 100 0.0 0.0 0.00 0.00 0.00 88 1019.8
20260506153503 53 100 0.0 0.0 0.00 0.00 0.00 88 1019.8
20260506153006 53 100 0.0 0.0 0.00 0.00 0.00 88 1019.9
20260506152504 53 100 0.0 0.0 0.00 0.00 0.00 88 1020.0
20260506152004 53 126 0.0 0.0 0.00 0.00 0.00 88 1020.1
20260506151514 53 126 0.0 0.9 0.00 0.00 0.00 88 1020.1
20260506151003 53 126 0.0 0.9 0.00 0.00 0.00 88 1020.1
20260506150505 53 96 0.0 0.0 0.00 0.00 0.00 89 1020.0
20260506150014 53 96 0.0 0.0 0.00 0.00 0.00 89 1019.8
20260506145503 53 94 0.0 0.0 0.00 0.00 0.00 89 1019.7
20260506145008 53 94 0.0 0.0 0.00 0.00 0.00 89 1019.6
20260506144527 53 94 0.0 0.0 0.00 0.00 0.00 89 1019.7
20260506144013 53 94 0.0 0.0 0.00 0.00 0.00 89 1019.8
20260506143512 53 94 0.0 0.0 0.00 0.00 0.00 89 1019.7
20260506143004 53 95 0.0 0.0 0.00 0.00 0.00 89 1019.8
20260506142504 53 95 0.0 0.0 0.00 0.00 0.00 89 1019.7
20260506142003 53 95 0.0 0.0 0.00 0.00 0.00 89 1019.6
20260506141518 52 95 0.0 0.0 0.00 0.00 0.00 89 1019.6
20260506141004 52 95 0.0 0.0 0.00 0.00 0.00 89 1019.6
20260506140503 52 95 0.0 0.0 0.00 0.00 0.00 89 1019.6
20260506140013 52 95 0.0 0.0 0.00 0.00 0.00 89 1019.6
20260506135504 52 95 0.0 0.0 0.00 0.00 0.00 89 1019.6
20260506135008 52 95 0.0 0.0 0.00 0.00 0.00 89 1019.6
20260506134516 52 95 0.0 0.0 0.00 0.00 0.00 88 1019.6
20260506134005 52 95 0.0 0.0 0.00 0.00 0.00 88 1019.6
20260506133508 52 94 0.0 0.0 0.00 0.00 0.00 88 1019.4
20260506133021 52 94 0.0 0.0 0.00 0.00 0.00 88 1019.3
20260506132508 52 93 0.0 0.0 0.00 0.00 0.00 88 1019.4
20260506132013 52 93 0.0 0.0 0.00 0.00 0.00 88 1019.4
20260506131526 52 93 0.0 0.0 0.00 0.00 0.00 88 1019.3
20260506131003 52 344 0.0 0.0 0.00 0.00 0.00 88 1019.3
20260506130506 52 346 0.0 0.0 0.00 0.00 0.00 88 1019.0
20260506130008 52 345 0.0 0.0 0.00 0.00 0.00 88 1019.1
20260506125507 52 346 0.0 0.0 0.00 0.00 0.00 89 1018.9
20260506125004 52 344 0.0 0.0 0.00 0.00 0.00 89 1019.0
20260506124513 52 343 0.0 0.0 0.00 0.00 0.00 88 1019.1
20260506124004 52 343 0.0 0.0 0.00 0.00 0.00 89 1019.0
20260506123503 52 343 0.0 0.0 0.00 0.00 0.00 89 1019.1
20260506123018 52 344 0.0 0.0 0.00 0.00 0.00 89 1019.1
20260506122507 52 343 0.0 0.0 0.00 0.00 0.00 89 1018.9
20260506122007 52 343 0.0 0.0 0.00 0.00 0.00 89 1018.9
20260506121523 52 343 0.0 0.0 0.00 0.00 0.00 89 1018.9
20260506121009 52 344 0.0 0.0 0.00 0.00 0.00 89 1018.9
20260506120511 52 344 0.0 0.0 0.00 0.00 0.00 89 1018.9
20260506120047 52 344 0.0 0.0 0.00 0.00 0.00 89 1018.9
20260506115508 52 344 0.0 0.0 0.00 0.00 0.00 90 1018.9
20260506115004 52 344 0.0 0.0 0.00 0.00 0.00 90 1018.8
20260506114510 52 343 0.0 0.0 0.00 0.00 0.00 90 1018.8
20260506114003 52 344 0.0 0.0 0.00 0.00 0.00 90 1018.8
20260506113506 52 343 0.0 0.0 0.00 0.00 0.00 90 1018.7
20260506113014 52 343 0.0 0.0 0.00 0.00 0.00 90 1018.6
20260506112507 52 343 0.0 0.0 0.00 0.00 0.00 90 1018.6
20260506112007 52 343 0.0 0.0 0.00 0.00 0.00 90 1018.5
20260506111519 52 343 0.0 0.0 0.00 0.00 0.00 90 1018.5
20260506111007 51 343 0.0 0.0 0.00 0.00 0.00 90 1018.5
20260506110506 51 343 0.0 0.0 0.00 0.00 0.00 91 1018.4
20260506110024 51 343 0.0 0.0 0.00 0.00 0.00 91 1018.4
20260506105507 51 343 0.0 0.0 0.00 0.00 0.00 91 1018.3
20260506105006 51 343 0.0 0.0 0.00 0.00 0.00 91 1018.3
20260506104536 51 343 0.0 0.0 0.00 0.00 0.00 91 1018.3
20260506104016 50 343 0.0 0.0 0.00 0.00 0.00 91 1018.2
20260506103510 50 343 0.0 0.0 0.00 0.00 0.00 91 1018.2
20260506103030 50 343 0.0 0.0 0.00 0.00 0.00 91 1018.2
20260506102507 49 343 0.0 0.0 0.00 0.00 0.00 91 1018.2
20260506102007 49 343 0.0 0.0 0.00 0.00 0.00 91 1018.2
20260506101513 49 343 0.0 0.0 0.00 0.00 0.00 90 1018.1
20260506101005 49 343 0.0 0.0 0.00 0.00 0.00 90 1018.1
20260506100511 49 343 0.0 0.0 0.00 0.00 0.00 90 1018.1
20260506100021 49 343 0.0 0.0 0.00 0.00 0.00 89 1018.0
20260506095506 50 343 0.0 0.0 0.00 0.00 0.00 89 1018.0
20260506095008 51 344 0.0 0.0 0.00 0.00 0.00 91 1017.9
20260506094525 51 344 0.0 0.0 0.00 0.00 0.00 91 1017.8
20260506094007 51 344 0.0 0.0 0.00 0.00 0.00 92 1017.8
20260506093511 51 343 0.0 0.0 0.00 0.00 0.00 92 1017.8
20260506093027 51 343 0.0 0.0 0.00 0.00 0.00 93 1017.9
20260506092509 51 343 0.0 0.0 0.00 0.00 0.00 92 1017.9
20260506092014 51 343 0.0 0.0 0.00 0.00 0.00 92 1017.8
20260506091525 51 343 0.0 0.0 0.00 0.00 0.00 92 1017.7
20260506091011 51 343 0.0 0.0 0.00 0.00 0.00 93 1017.8
20260506090505 51 343 0.0 0.0 0.00 0.00 0.00 94 1017.7
20260506090016 50 343 0.0 0.0 0.00 0.00 0.00 94 1017.7
20260506085505 49 343 0.0 0.0 0.00 0.00 0.00 93 1017.7
20260506085005 49 343 0.0 0.0 0.00 0.00 0.00 90 1017.7
20260506084545 49 343 0.0 0.0 0.00 0.00 0.00 90 1017.6
20260506084010 49 343 0.0 0.0 0.00 0.00 0.00 90 1017.5
20260506083511 50 343 0.0 0.0 0.00 0.00 0.00 90 1017.5
20260506083026 50 343 0.0 0.0 0.00 0.00 0.00 90 1017.5
20260506082507 50 343 0.0 0.0 0.00 0.00 0.00 91 1017.4
20260506082011 51 343 0.0 0.0 0.00 0.00 0.00 91 1017.4
20260506081536 50 343 0.0 0.0 0.00 0.00 0.00 91 1017.3
20260506081010 51 343 0.0 0.0 0.00 0.00 0.00 91 1017.2
20260506080507 51 344 0.0 0.0 0.00 0.00 0.00 92 1017.1
20260506073506 50 343 0.0 0.0 0.00 0.00 0.00 91 1017.0
20260506073004 50 343 0.0 0.0 0.00 0.00 0.00 91 1016.9
20260506072502 50 343 0.0 0.0 0.00 0.00 0.00 91 1016.9
20260506072003 50 343 0.0 0.0 0.00 0.00 0.00 91 1016.9
20260506071503 50 343 0.0 0.0 0.00 0.00 0.00 91 1016.9
20260506071002 50 343 0.0 0.0 0.00 0.00 0.00 90 1016.9
20260506070502 50 343 0.0 0.0 0.00 0.00 0.00 90 1017.0